Location: Gro�bocka
(50.8204°N, 11.9702°E)
Time: 14:39:04
(UTC+00:00)

Cosmos 2266 Rocket - Pass Details

Date: 29 October 2020
Orbit: 935 x 1007 km, 82.9° (Epoch: 28 November)

Event Time Altitude Azimuth Distance (km) Brightness Sun altitude
Rises 16:22:18 0° 348° (NNW) 3,664 7.0 -5.4°
Reaches altitude 10° 16:24:48 10° 346° (NNW) 2,724 6.4 -5.8°
Maximum altitude 16:31:00 69° 265° (W) 1,048 4.5 -6.8°
Drops below altitude 10° 16:37:16 10° 183° (S) 2,753 6.6 -7.7°
Sets 16:39:48 0° 181° (S) 3,705 7.2 -8.1°
